Overview Statistics Trail Chart Weather Telemetry Raw packets
 

This is the latest recevied weather packets stored in our database for station/object 4S6DRJ-13. If no packets are shown the sender has not sent any weather packets the latest 10 day(s).

<< 176 177 178 179 180 181 182 >>
Time Temp. Humidity Pressure Rain* Wind** Luminosity Snow
1788201353 28.33° C 83% 1009.4 hPa 0 mm 0.89 m/s, 249° 0 W/m² -
1788201310 28.33° C 82% 1009.3 hPa 0 mm 0 m/s 0 W/m² -
1788201231 28.33° C 82% 1009.3 hPa 0 mm 0.45 m/s, 247° 0 W/m² -
1788201170 28.33° C 82% 1009.4 hPa 0 mm 0 m/s 0 W/m² -
1788201109 28.33° C 82% 1009.2 hPa 0 mm 0.45 m/s, 226° 0 W/m² -
1788201048 28.33° C 82% 1009.3 hPa 0 mm 0.89 m/s, 187° 0 W/m² -
1788200987 28.33° C 82% 1009.2 hPa 0 mm 0 m/s 0 W/m² -
1788200926 28.33° C 82% 1009.2 hPa 0 mm 0 m/s 0 W/m² -
1788200865 28.33° C 82% 1009.2 hPa 0 mm 0.45 m/s, 214° 0 W/m² -
1788200804 28.33° C 82% 1009.3 hPa 0 mm 0.89 m/s, 205° 0 W/m² -
1788200743 28.33° C 82% 1009.3 hPa 0 mm 1.34 m/s, 243° 0 W/m² -
1788200682 28.33° C 82% 1009.3 hPa 0 mm 0.89 m/s, 156° 0 W/m² -
1788200621 28.33° C 82% 1009.3 hPa 0 mm 0.89 m/s, 228° 0 W/m² -
1788200561 28.33° C 82% 1009.3 hPa 0 mm 0.45 m/s, 238° 0 W/m² -
1788200499 28.33° C 82% 1009.5 hPa 0 mm 0.45 m/s, 210° 0 W/m² -
1788200438 28.33° C 83% 1009.3 hPa 0 mm 0.45 m/s, 211° 0 W/m² -
1788200377 28.33° C 83% 1009.4 hPa 0 mm 0 m/s 0 W/m² -
1788200316 28.33° C 83% 1009.5 hPa 0 mm 0 m/s 0 W/m² -
1788200255 28.33° C 83% 1009.4 hPa 0 mm 0.45 m/s, 152° 0 W/m² -
1788200194 28.33° C 82% 1009.4 hPa 0 mm 0.45 m/s, 275° 0 W/m² -
1788200133 28.33° C 82% 1009.2 hPa 0 mm 0.45 m/s, 232° 0 W/m² -
1788200072 28.33° C 82% 1009.5 hPa 0 mm 0.89 m/s, 240° 0 W/m² -
1788200011 28.33° C 82% 1009.4 hPa 0 mm 0.45 m/s, 255° 0 W/m² -
1788199950 28.33° C 83% 1009.4 hPa 0 mm 0.45 m/s, 239° 0 W/m² -
1788199889 28.33° C 83% 1009.5 hPa 0 mm 0 m/s 0 W/m² -

* Rain latest hour (hover to see other rain measurements)
** Current wind speed in m/s (hover to see current wind gust speed)